METEOR 2-8 DEB

Satellite information

Favourite Embed

Satellite Type and Status

DEBRISIN ORBIT

Key statistics

Satellite METEOR 2-8 DEB at a glance.

Uptime

15810

Days in orbit

Revolutions

≈ 14.2

Per day

Orbit

LEO

Low Earth Orbit

Inclination

82.5

Latest

Satellite identification and parameters

Extended collection of information and parameters for METEOR 2-8 DEB.

Object identification

Identified? True

Debris? True

Object name: METEOR 2-8 DEB

International designator: 1982-025K

Object number (NORAD): 36325

Object ID (CCSDS): 36325

Country: COMMONWEALTH OF INDEPENDENT STATES (CIS)

Current information (Y/N): Y

RCS size: SMALL

Orbital parameters

Period: 101.554 minutes

Inclination: 82.5177 deg

SMA: 7210.364 km

Apoapsis: 842.0 km

Periapsis: 822.457 km

RAAN: 163.7515 deg

Eccentricy: 0.0013552

Argument of periapsis: 259.8732 deg

Mean anomaly: 100.0918 deg

Mean motion: 14.17969928 rev/day

Mean motion (dot): 0.00001618 rev/day2

B* drag term: 0.0007828 1/REarth

Two-line elements (TLE)

Creation date: July 3, 2025, 3:40 a.m.

Reference frame: TEME

Reference center: EARTH

Epoch: July 2, 2025, 4:20 p.m. UTC

TLE line 0: 0 METEOR 2-8 DEB

TLE line 1: 1 36325U 82025K 25183.68101853 .00001618 00000-0 78280-3 0 9991

TLE line 2: 2 36325 82.5177 163.7515 0013552 259.8732 100.0918 14.17969928602633

Live tracking on map

Real-time ground track for satellite METEOR 2-8 DEB.

In-orbit conjunctions

A list of the most updated potential collisions computed for object METEOR 2-8 DEB.

Target Orbit TCA Probability of collision Miss distance Type
CZ-6A DEB SSO 2025-03-09 19:00:52 0.0001190367 162.0 (m) DEBRIS
COSMOS 2360 LEO 2024-09-14 23:02:53 0.0003355977 545.0 (m) PAYLOAD

Associated space launch

Second generation soviet meteorological satellite

METEOR 2-8 DEB was lifted into orbit during the mission ‘Tsiklon-3 | Meteor-2 8’, on board a Tsiklon-3 space rocket.

The launch took place on March 25, 1982, 9:50 a.m. from 32/1.

For more information about the launch, click the button.

Launch to space Tsiklon-3 | Meteor-2 8
Tsiklon-3 | Meteor-2 8

Agency: N/A

Status: Launch Successful

Launch date: March 25, 1982, 9:50 a.m. UTC

Rocket: Tsiklon-3

Launch pad: 32/1

Location: Plesetsk Cosmodrome, Russian Federation

...

Latest news about this satellite

There are no fresh news available about this satellite. Check back as we update our databases every day.


Newsletter sign-up

Weekly statistics, charts and insights to help you stay on top of the space industry.